Weather History for Conroe, TX

Change the Weather History Date:

Monday, May 13, 2013

  Actual Average Record
Temperature  
Mean Temperature 64 °F -  
Max Temperature 82 °F 83 °F 90 °F (2006)
Min Temperature 46 °F 62 °F 46 °F (2013)
Degree Days  
Heating Degree Days 1    
Growing Degree Days 14 (Base 50)    
Moisture  
Dew Point 49 °F    
Average Humidity 67    
Maximum Humidity 97    
Minimum Humidity 26    
Precipitation  
Precipitation 0.01 in - - ()
Sea Level Pressure  
Sea Level Pressure 30.23 in    
Wind  
Wind Speed 2 mph (SE)    
Max Wind Speed 9 mph    
Max Gust Speed -    
Visibility 10 miles    
Events      
Averages and records for this station are not official NWS values.
T = Trace of Precipitation, MM = Missing Value Source: NWS Daily Summary

Daily Weather History Graph

Daily Weather History Graph

Search for Another Location

Airport:

Trip Planner

Search our weather history database for the weather conditions in past years. The results will help you decide how hot, cold, wet, or windy it might be!

Date:

Astronomy

May. 13, 2013 Rise Set
Actual Time 6:28 AM CDT 8:07 PM CDT
Civil Twilight 6:02 AM CDT 8:33 PM CDT
Nautical Twilight 5:31 AM CDT 9:05 PM CDT
Astronomical Twilight 4:58 AM CDT 9:38 PM CDT
Moon 9:16 AM CDT (5/13) 11:17 PM CDT (5/13)
Length of Visible Light 14h 31m
Length of Day
13h 39m
Waxing Crescent, 12% of the Moon is Illuminated
May 13
Waxing Crescent
May 17
First Quarter
May 24
Full
May 31
Last Quarter
Jun 8
New

Hourly Weather History & Observations

Time (CDT) Temp. Dew Point Humidity Pressure Visibility Wind Dir Wind Speed Gust Speed Precip Events Conditions
12:53 AM 52.0 °F 51.1 °F 97% 30.20 in 10.0 mi Calm Calm - N/A   Clear
1:53 AM 52.0 °F 50.0 °F 93% 30.19 in 10.0 mi Calm Calm - N/A   Clear
2:53 AM 50.0 °F 48.9 °F 96% 30.19 in 10.0 mi Calm Calm - N/A   Clear
3:53 AM 48.0 °F 46.9 °F 96% 30.19 in 10.0 mi Calm Calm - N/A   Clear
4:53 AM 46.9 °F 46.0 °F 97% 30.19 in 10.0 mi Calm Calm - N/A   Clear
5:53 AM 46.9 °F 46.0 °F 97% 30.21 in 10.0 mi Calm Calm - N/A   Clear
6:53 AM 46.0 °F 45.0 °F 96% 30.24 in 10.0 mi Calm Calm - N/A   Clear
7:53 AM 54.0 °F 52.0 °F 93% 30.25 in 10.0 mi Calm Calm - 0.01 in   Clear
8:53 AM 63.0 °F 51.1 °F 65% 30.28 in 10.0 mi ESE 5.8 mph - N/A   Clear
9:53 AM 66.9 °F 48.9 °F 52% 30.30 in 10.0 mi Variable 5.8 mph - N/A   Clear
10:53 AM 71.1 °F 46.9 °F 42% 30.30 in 10.0 mi Variable 4.6 mph - N/A   Clear
11:53 AM 75.0 °F 48.9 °F 40% 30.29 in 10.0 mi Variable 5.8 mph - N/A   Clear
12:53 PM 78.1 °F 46.9 °F 33% 30.27 in 10.0 mi Variable 6.9 mph - N/A   Clear
1:53 PM 79.0 °F 41.0 °F 26% 30.25 in 10.0 mi Variable 3.5 mph - N/A   Clear
3:53 PM 82.0 °F 46.9 °F 29% 30.21 in 10.0 mi Variable 5.8 mph - N/A   Clear
4:53 PM 82.0 °F 45.0 °F 27% 30.20 in 10.0 mi SE 9.2 mph - N/A   Clear
5:53 PM 81.0 °F 46.9 °F 30% 30.18 in 10.0 mi South 4.6 mph - N/A   Clear
7:53 PM 72.0 °F 53.1 °F 51% 30.19 in 10.0 mi SE 5.8 mph - N/A   Clear
9:53 PM 64.0 °F 55.9 °F 75% 30.23 in 10.0 mi SSE 5.8 mph - N/A   Clear
10:53 PM 62.1 °F 55.9 °F 80% 30.24 in 10.0 mi SSE 5.8 mph - N/A   Clear
11:53 PM 57.9 °F 55.0 °F 90% 30.24 in 10.0 mi Calm Calm - N/A   Clear